Location: Ferchesar
(52.6477°N, 12.4298°E)
Time: 10:12:43
(UTC+01:00)

Tiros 1 - Pass Details

Date: 06 December 2021
Orbit: 629 x 664 km, 48.4° (Epoch: 25 January)

Event Time Altitude Azimuth Distance (km) Brightness Sun altitude
Rises 20:39:32 0° 262° (W) 2,931 11.2 -41.4°
Enters shadow 20:41:07 - 259° (W) 2,318 10.6 -41.6°
Reaches altitude 10° 20:41:53 10° 257° (WSW) 2,027 - -41.8°
Maximum altitude 20:46:25 51° 182° (S) 808 - -42.4°
Drops below altitude 10° 20:50:59 10° 107° (ESE) 2,048 - -43.1°
Sets 20:53:23 0° 102° (ESE) 2,965 - -43.4°
